Flag for Germany Weather past 2 weeks in Gütersloh, North Rhine-Westphalia, Germany

Now
53 °F

Low clouds.


Feels Like: 53 °F
Forecast: 54 / 68 °F
Wind: 2 mph from West

Location: Bad Lippspringe

Current Time: Sep 1, 2014 at 10:33:11 AM

Latest Report: Sep 1, 2014 at 10:00 AM


Visibility: 0 mi

Pressure: 30.11 "Hg

Humidity: 99%

Dew point: 53 °F

Location of GüterslohLocation

Historic Weather in Gütersloh — Graph

°F

Gütersloh temperature yesterday

Maximum temperature yesterday: 64 °F (at 2:00 PM)
Minimum temperature yesterday: 53 °F (at 11:00 PM)
Average temperature yesterday: 58 °F

Past Weeks' High & Low Weather Summary

 TemperatureHumidityPressure
High72 °F (Aug 28, 3:00 PM)99% (Aug 27, 5:00 AM)30.10 "Hg (Aug 27, 5:00 AM)
Low42 °F (Aug 25, 7:00 AM)47% (Aug 20, 4:00 PM)29.65 "Hg (Aug 18, 10:00 AM)
Average57 °F80%29.93 "Hg
* Reported Aug 17 9:00 AM — Sep 1 9:00 AM, Gütersloh, Weather by CustomWeather, © 2014

Note: Actual official high and low records may vary slightly from our data, if they occured in-between our weather recording intervals... More about our weather records

Advertising

Gütersloh weather history for previous 24 hours

 ConditionsComfort  
Time TempWeatherWind HumidityBarometerVisibility
9:00 AM
Sep 1
53 °FLow clouds.2 mph99%30.10 "Hg0 mi
8:00 AM52 °FLow clouds.2 mph99%30.10 "Hg0 mi
7:00 AM52 °FLow clouds.2 mph99%30.09 "Hg0 mi
6:00 AM52 °FLow clouds.2 mph99%30.08 "Hg0 mi
5:00 AM52 °FLow clouds.1 mph97%30.07 "Hg1 mi
4:00 AM52 °FLow clouds.2 mph97%30.06 "Hg1 mi
3:00 AM53 °FFog.1 mph95%30.06 "Hg2 mi
2:00 AM53 °FFog.1 mph96%30.05 "Hg2 mi
1:00 AM53 °FFog.1 mph97%30.04 "Hg2 mi
12:00 AM52 °FPassing clouds.2 mph97%30.03 "Hg2 mi
11:00 PM
Aug 31
53 °FClear.1 mph97%30.01 "Hg2 mi
10:00 PM54 °FFog.1 mph97%30.00 "Hg3 mi
9:00 PM56 °FOvercast.2 mph91%29.98 "Hg7 mi
8:00 PM58 °FOvercast.1 mph87%29.95 "Hg12 mi
7:00 PM59 °FPartly sunny.1 mph74%29.95 "Hg28 mi
6:00 PM59 °FLight rain. Overcast.1 mph88%29.93 "Hg7 mi
5:00 PM59 °FOvercast.3 mph82%29.93 "Hg11 mi
4:00 PM59 °FOvercast.2 mph85%29.93 "Hg13 mi
3:00 PM54 °FRain. Overcast.2 mph92%29.95 "Hg2 mi
2:00 PM64 °FSunny.2 mph69%29.91 "Hg6 mi
1:00 PM63 °FPartly sunny.2 mph75%29.93 "Hg6 mi
12:00 PM60 °FOvercast.5 mph80%29.94 "Hg4 mi
11:00 AM58 °FOvercast.3 mph89%29.94 "Hg3 mi
10:00 AM58 °FLow clouds.3 mph89%29.94 "Hg4 mi
Weather by CustomWeather, © 2014

See weather overviewHow to use our weather pages